Location: Unspecified
(48.2082°N, 0.0000°E)
Time: 20:57:55
(UTC+00:00)

Vanguard 1 - Pass Details

Date: 27 June 2019
Orbit: 655 x 3829 km, 34.2° (Epoch: 20 August)

Event Time Altitude Azimuth Distance (km) Brightness Sun altitude
Rises 05:09:28 0° 266° (W) 7,116 13.9 8.8°
Reaches altitude 10° 05:15:19 10° 260° (W) 5,612 13.3 9.7°
Maximum altitude 05:28:15 35° 203° (SSW) 2,724 12.1 11.7°
Drops below altitude 10° 05:35:57 10° 140° (SE) 3,327 13.1 12.9°
Sets 05:38:29 0° 131° (SE) 3,992 13.6 13.3°
